Location: Unspecified
(43.4680°N, 87.1740°E)
Time: 07:04:08
(UTC+00:00)

Meteor 2-1 Rocket - Pass Details

Date: 17 January 2020
Orbit: 827 x 909 km, 81.3° (Epoch: 24 February)

Event Time Altitude Azimuth Distance (km) Brightness Sun altitude
Rises 12:15:10 0° 355° (N) 3,382 7.2 -13.1°
Reaches altitude 10° 12:17:41 10° 1° (N) 2,441 6.4 -13.5°
Maximum altitude 12:22:59 47° 75° (ENE) 1,094 4.4 -14.4°
Drops below altitude 10° 12:28:16 10° 148° (SSE) 2,436 6.4 -15.4°
Sets 12:30:46 0° 155° (SSE) 3,373 7.2 -15.8°
